FORMOSAT-3 FM2

Last updated on Tue Mar 15 2022 00:02:21 GMT+0000 (Coordinated Universal Time)

1 29052U 06011F 22073.07195662 .00000306 00000+0 13564-3 0 9996 2 29052 72.0352 316.8985 0040463 342.6477 17.3274 14.29099517830281
UTC large
Height (km)
Speed (km/s)
/
Latitude / Longitude
Inclination (degrees)
Orbital Period (minutes)
Azimuth
Elevation
Range (km)
Doppler Factor

Next 0 passes for location: London (51.5072 / 0.1276)

Sorry there are no passes over London.